Terminal Aerodrome Forecast
Issued by NWS

Home | Current Version | Previous Version | Text Only | Print | Product List | Glossary On
Versions: 1 2 3 4 5 6 7 8 9 10 11 12 13 14 15 16 17 18 19 20 21 22
000
FTUS41 KPBZ 212300
TAFAGC
TAF
KAGC 212320Z 2200/2224 29012G25KT P6SM FEW035
     FM220300 30012KT P6SM SCT030
     FM220700 30010KT P6SM BKN020
     FM221300 31011KT P6SM BKN035=

USA.gov is the U.S. government's official web portal to all federal, state and local government web resources and services.